User: anonymous   Login
Location: Unspecified
(0.0000°N, 0.0000°E)
Time: 17:47:17
(UTC+00:00)
Language:

CUTE-I - Orbit

View from above orbital plane
View from above orbital plane
View from above satellite
View from above satellite

Ground track
Ground track

The orbit data is extracted from the following two-line orbital elements,

1 27844U 03031E   20017.68323640  .00000035  00000-0  35212-4 0  9999
2 27844  98.6835  27.6982 0010656 131.0910 229.1190 14.22216219858569
Epoch (UTC): 17 January 2020 16:23:51
Eccentricity: 0.0010656
inclination: 98.6835°
perigee height: 810 km
apogee height: 825 km
right ascension of ascending node: 27.6982°
argument of perigee: 131.0910°
revolutions per day: 14.22216219
mean anomaly at epoch: 229.1190°
orbit number at epoch: 85856

The dashed part of the orbit path shows where the satellite is in the earth's shadow,  

DLR